Theta_e
291 290 290 290 290 290 290 290 290 290 290 289 289 289 289 289 289 288 288 288 288 288 288 288 288 288 288 288 288 289 289 289 290 291 291 292 292 292 292 293 293 293 293 293 293 293 293 294 294 294 295 295 295 295 296 296 296 296 296 295 295 295 294 294 293 294 294 295 296 296 297 297 296 296 296 296 296 296 297 297 297 297 297 298 298 298
291 290 290 290 290 290 290 290 289 289 289 289 289 289 289 289 288 288 288 288 288 288 288 288 288 288 288 288 288 289 289 289 290 291 291 292 292 292 292 292 292 292 293 293 293 293 294 294 294 295 295 295 295 295 295 296 295 295 295 295 294 294 294 294 293 293 292 293 293 294 295 295 295 294 295 295 295 295 295 296 296 297 297 297 297 297
290 290 290 290 290 290 289 289 289 289 289 289 289 289 289 288 288 288 288 288 288 288 288 288 288 288 288 288 289 289 289 289 290 291 291 291 291 291 292 292 292 292 292 292 293 293 293 294 295 295 295 295 295 294 294 294 294 294 294 294 294 293 293 294 293 293 293 292 293 294 295 294 294 294 294 294 294 294 295 296 296 296 296 297 297 297
290 290 290 290 289 289 289 289 289 289 289 289 289 288 288 288 288 288 288 288 288 288 288 288 288 288 288 288 289 289 289 289 290 290 291 291 291 291 291 291 292 292 292 292 292 293 293 294 294 294 294 294 294 293 293 293 293 293 293 293 293 293 293 294 294 294 294 294 294 294 295 294 294 293 293 293 293 293 294 295 295 296 296 296 296 297
290 290 290 290 289 289 289 289 289 289 289 288 288 288 288 288 288 288 288 288 288 288 288 288 288 288 288 288 289 289 289 289 290 290 290 290 290 290 291 291 291 291 292 292 292 292 293 294 294 294 294 293 293 292 292 293 293 293 293 293 293 293 293 293 294 294 294 294 294 294 294 294 294 294 293 293 293 293 293 294 294 295 295 296 296 296
290 290 290 289 289 289 289 289 289 288 288 288 288 288 288 288 288 288 288 288 288 288 288 288 288 288 288 288 289 289 289 289 290 290 290 290 290 290 291 291 291 291 291 292 292 292 293 294 294 293 293 292 292 292 292 293 293 293 293 293 293 293 293 293 293 293 293 293 293 293 293 293 293 294 293 293 293 293 293 293 294 295 295 295 296 296
290 290 290 289 289 289 289 289 288 288 288 288 288 288 288 288 288 288 288 288 288 288 287 288 288 288 288 288 289 289 289 289 289 289 289 289 290 290 290 291 291 291 291 291 292 292 293 293 293 292 292 292 292 292 292 292 293 293 293 293 292 292 292 292 292 293 293 293 293 293 293 293 293 293 293 293 293 293 293 293 294 294 294 295 295 296
290 290 290 289 289 289 289 288 288 288 288 288 288 288 288 288 288 288 288 288 287 287 287 288 288 288 288 289 289 289 289 289 289 289 289 289 290 290 290 290 290 291 291 291 292 292 292 292 291 291 291 291 291 292 292 292 292 292 292 292 292 292 292 292 292 292 292 293 293 293 293 293 293 293 293 293 293 293 293 293 293 293 294 294 295 295
290 290 290 289 289 289 289 288 288 288 288 288 288 288 288 288 288 288 288 287 287 287 288 288 288 288 288 289 289 289 289 289 289 289 289 289 289 289 290 290 290 290 290 291 291 291 291 290 289 289 289 290 291 291 292 291 291 291 291 291 291 291 292 292 292 292 292 292 292 292 292 293 293 292 292 293 293 293 293 293 293 293 293 294 295 295
290 290 290 290 289 289 289 289 289 289 289 289 289 289 288 288 288 287 287 287 287 287 288 288 288 288 288 288 289 289 289 289 289 289 290 289 289 289 289 290 290 290 290 290 290 289 288 288 288 288 288 290 290 291 291 291 291 291 290 291 291 291 291 292 292 292 292 292 292 292 292 293 292 292 292 292 292 292 292 293 293 293 293 294 294 294
290 290 290 290 290 290 290 289 289 289 289 289 289 289 288 288 288 287 287 287 287 288 288 288 288 288 288 289 289 289 289 289 290 289 289 289 289 289 289 289 289 289 289 288 288 287 287 287 287 287 288 289 290 290 290 290 290 290 290 290 291 291 291 292 292 292 292 292 292 292 292 292 292 292 291 292 292 292 292 292 292 292 293 293 293 294
291 291 291 290 290 290 290 290 290 290 289 289 289 288 288 288 287 287 287 287 288 288 288 288 288 289 289 289 289 290 290 290 289 289 289 289 289 289 289 289 289 288 288 287 287 287 286 287 287 287 288 288 289 289 289 289 289 290 290 290 291 291 291 291 291 291 291 291 291 291 291 291 291 291 290 291 291 291 291 291 291 291 292 292 292 293
291 291 291 291 291 291 290 290 290 290 289 289 288 288 288 287 287 287 287 288 288 288 288 288 289 289 290 290 290 290 290 290 289 289 289 289 289 289 289 288 287 287 287 286 286 286 286 287 287 287 288 288 288 288 288 288 289 289 290 290 290 291 291 291 291 291 291 291 290 290 290 290 290 290 290 290 291 291 291 291 291 291 291 291 292 292
291 291 291 291 291 291 290 290 290 289 289 288 288 288 287 287 287 287 288 288 288 288 289 289 289 290 290 290 290 290 290 289 289 289 289 289 289 288 288 287 287 286 286 286 286 286 287 287 287 287 287 287 287 287 287 288 288 289 290 290 290 290 290 290 290 290 290 290 290 290 290 290 290 290 290 291 291 291 292 292 292 292 292 292 292 292
292 291 291 291 291 291 290 289 289 288 288 288 287 287 287 287 287 288 288 288 289 289 289 290 290 290 290 290 290 290 289 289 289 289 289 289 288 288 287 286 286 286 286 286 286 286 286 286 286 286 286 286 286 287 287 288 288 289 289 289 289 289 289 289 289 289 289 289 289 289 289 290 290 291 291 291 291 292 292 292 292 292 292 292 292 292
292 291 291 291 290 290 289 289 288 288 287 287 287 287 287 287 288 288 288 289 289 290 290 290 290 290 290 289 289 289 289 289 289 289 289 288 287 287 286 286 286 286 286 286 286 286 286 286 286 286 286 286 286 287 287 288 288 288 288 288 288 288 288 288 289 289 289 289 289 289 290 290 290 291 291 291 291 291 291 292 292 292 292 292 292 293
291 291 291 290 290 289 289 288 288 288 288 288 288 288 288 288 288 289 289 289 290 290 290 290 290 290 289 288 288 288 288 289 289 289 288 287 287 286 286 286 286 285 285 285 285 285 285 285 285 285 285 286 286 286 287 287 287 287 287 288 288 288 288 288 288 288 288 289 289 290 290 290 290 290 290 290 290 291 291 291 292 292 292 292 292 292
291 291 291 290 290 289 289 288 288 288 288 288 288 288 288 289 289 289 290 290 290 290 290 290 289 289 288 288 288 288 288 289 289 288 287 287 286 286 285 285 285 285 285 285 285 285 285 285 285 285 285 285 286 286 286 286 287 287 287 287 287 288 288 288 288 288 289 289 289 289 289 289 289 289 289 289 290 290 290 291 291 291 291 292 292 292
291 291 291 290 290 289 289 288 288 288 288 288 288 288 289 289 289 289 289 290 290 290 290 289 289 288 288 288 288 288 289 289 288 287 287 286 286 285 285 285 285 285 284 285 285 285 285 285 285 285 285 285 285 285 286 286 286 287 287 287 287 288 288 288 288 288 288 289 289 289 289 289 289 289 289 289 290 290 290 291 291 291 291 292 292 292
291 291 291 290 290 289 289 288 288 288 288 288 288 288 289 289 289 289 289 290 290 289 289 289 288 288 288 288 289 289 289 289 288 287 286 286 285 285 285 284 284 284 284 284 284 284 285 285 284 284 284 284 285 285 286 286 286 287 287 287 287 287 287 288 288 288 288 288 288 288 288 288 289 289 289 289 289 290 290 290 290 291 291 291 291 292
291 291 290 290 289 289 288 288 288 288 288 288 288 289 289 289 289 289 290 289 289 289 288 289 289 289 288 288 288 288 288 288 287 287 286 285 285 285 284 284 284 284 284 284 284 284 284 284 284 284 284 284 284 285 286 286 286 286 286 286 287 287 287 287 287 288 288 288 288 288 288 288 289 289 289 289 290 290 290 290 290 290 290 291 291 291
290 290 290 290 289 289 289 289 289 289 289 289 289 289 289 289 289 289 289 289 288 288 288 288 288 288 288 288 287 287 286 287 287 286 285 285 285 284 284 284 284 284 284 284 284 284 284 284 284 284 284 284 284 285 285 286 286 286 286 286 286 286 287 287 287 287 287 288 288 288 288 288 289 289 289 289 289 290 290 290 290 290 290 290 291 291
290 290 290 290 289 289 289 289 290 290 290 289 289 289 289 289 289 289 289 288 288 288 288 288 288 287 287 286 286 286 286 286 286 285 285 285 285 284 284 284 284 284 284 284 284 284 284 284 284 284 284 284 284 285 285 285 285 285 286 286 286 286 287 287 287 287 287 288 288 288 288 289 289 289 289 289 289 289 289 290 290 290 290 290 291 291
290 290 290 290 290 290 290 290 290 290 291 290 290 290 290 289 289 288 288 287 287 287 287 286 286 286 285 285 285 285 286 286 286 285 285 284 284 284 284 284 284 284 284 284 284 284 284 284 284 284 284 284 284 285 285 285 285 285 285 286 286 286 286 287 287 287 287 288 288 288 288 289 289 289 289 289 289 289 289 289 289 289 290 290 290 291
290 290 290 290 290 290 291 291 291 291 291 291 291 290 289 288 288 287 287 286 286 285 285 285 285 285 284 285 285 285 286 286 285 285 284 284 284 284 284 284 284 284 284 284 284 284 284 284 284 284 284 284 284 284 284 284 284 285 285 285 286 286 286 286 287 287 287 287 288 288 288 289 289 289 289 289 289 289 289 289 289 289 290 290 290 291
291 291 291 291 291 291 291 291 291 292 292 291 290 289 288 288 287 286 286 285 285 285 285 284 285 285 284 285 285 286 286 286 285 285 284 284 284 284 284 284 284 284 284 284 284 284 284 284 284 284 284 284 284 284 284 284 284 285 285 285 285 286 286 286 286 287 287 287 288 288 288 288 288 289 289 289 289 289 289 289 289 289 290 290 290 290
291 291 291 291 291 291 291 291 291 291 291 290 289 288 288 287 286 286 285 284 285 284 285 285 285 285 285 285 286 286 286 285 285 285 284 284 284 284 284 284 284 284 284 284 284 284 284 284 284 284 284 284 284 284 284 284 284 284 285 285 285 286 286 286 286 286 287 287 287 288 288 288 289 289 289 289 289 289 289 289 289 289 290 290 290 290
292 292 291 291 291 291 291 291 291 290 289 289 288 288 287 286 285 285 284 285 285 285 285 285 285 286 286 286 286 286 285 285 285 284 284 284 284 284 284 284 284 284 284 284 284 284 284 284 284 284 284 284 284 284 284 284 284 284 284 285 285 285 285 286 286 286 287 287 287 288 288 288 289 289 289 289 289 289 289 289 289 289 290 290 290 290
292 291 291 291 291 291 290 290 290 289 288 287 287 286 286 285 285 285 285 285 285 285 285 286 286 286 286 286 285 285 284 284 284 284 284 284 284 284 284 284 284 284 284 284 284 284 284 284 284 284 284 284 284 284 284 284 284 284 284 284 285 285 285 285 286 286 287 287 287 288 288 288 288 289 289 289 289 289 289 289 289 289 290 290 290 290
292 292 292 291 291 290 290 290 289 288 287 286 285 285 285 285 285 285 285 285 285 285 285 286 286 286 285 285 284 284 284 284 284 284 283 283 284 284 284 284 284 284 284 284 284 284 284 284 283 283 283 283 283 283 284 284 284 284 284 284 284 284 285 285 285 286 286 287 287 288 288 288 288 289 289 289 289 289 289 289 289 289 290 290 290 290
293 292 292 291 291 290 290 289 288 287 286 285 284 284 284 284 284 285 285 285 285 285 285 285 285 284 284 284 284 284 283 283 283 283 283 283 284 284 284 284 284 284 284 284 284 284 284 283 283 283 283 283 283 283 283 284 284 284 284 284 284 284 285 285 285 286 286 286 287 287 288 288 288 288 288 289 289 289 289 289 289 290 290 290 290 290
293 292 292 291 291 290 289 289 287 286 285 284 284 284 284 284 284 285 285 285 285 285 284 284 284 284 283 283 283 283 283 283 283 283 283 283 284 284 284 284 284 284 284 284 284 284 284 283 283 283 283 283 283 283 283 284 284 284 284 284 284 284 284 285 285 285 286 286 287 287 287 287 288 288 288 288 288 289 289 289 289 290 290 290 290 290
292 292 291 291 290 289 289 288 286 285 284 284 284 284 284 284 284 284 285 285 285 285 284 284 284 283 283 283 283 283 283 283 283 283 283 284 284 284 284 284 284 284 284 284 284 283 283 283 283 283 283 283 283 283 283 284 284 284 284 284 284 284 284 285 285 285 285 286 286 287 287 287 287 287 287 288 288 288 289 289 289 290 290 290 290 290
291 291 291 290 289 289 288 287 286 284 284 284 284 284 284 284 284 285 285 285 285 285 284 284 284 283 283 283 283 283 283 283 283 283 283 284 284 284 284 284 284 284 284 283 283 283 283 283 283 283 283 283 283 283 283 284 284 284 284 284 284 284 284 284 284 285 285 286 286 287 287 287 287 287 287 287 287 288 288 288 289 289 289 290 290 290
291 291 290 289 289 288 287 286 285 284 284 284 284 284 284 284 284 285 285 285 285 285 284 284 284 283 283 283 283 283 283 283 283 283 283 284 284 284 284 284 284 283 283 283 283 282 282 282 282 282 282 282 283 283 283 283 283 283 283 283 283 283 284 284 284 285 285 286 286 287 287 287 287 287 286 287 287 287 288 288 288 289 289 289 289 289
290 290 289 289 288 288 287 285 284 284 284 284 284 284 284 284 284 285 285 285 285 285 284 284 284 283 283 283 283 283 283 283 283 283 284 283 283 283 283 283 283 282 282 282 282 282 282 282 282 282 282 282 282 283 283 283 283 283 283 283 283 283 283 283 284 284 285 286 286 287 287 287 287 287 286 286 286 286 287 287 287 288 288 288 289 289
289 289 289 289 288 287 286 285 284 284 284 284 284 284 284 284 284 284 284 284 284 284 284 284 284 283 283 283 283 283 283 283 283 283 283 283 283 282 282 282 282 281 281 281 281 281 281 281 281 281 281 282 282 282 282 282 282 282 282 282 282 282 283 283 284 284 285 286 287 287 287 287 286 287 286 286 286 286 286 286 286 287 287 288 288 288
289 289 289 289 288 286 285 284 284 284 283 284 284 284 284 284 284 284 284 284 284 284 284 284 284 283 283 283 283 283 283 283 283 283 283 282 282 281 281 281 281 281 280 280 280 281 281 281 281 281 281 281 281 281 282 282 281 281 281 281 282 282 283 283 284 284 285 286 287 287 286 286 286 286 286 286 286 286 285 286 286 286 286 287 287 288
289 289 289 288 287 286 285 284 284 284 283 284 284 284 284 284 284 284 284 284 284 284 284 284 283 283 283 283 283 283 283 283 283 282 282 281 281 281 281 280 280 280 280 280 280 280 280 280 280 280 280 281 281 281 281 281 281 281 281 281 282 282 283 283 284 284 285 286 286 286 286 286 286 286 286 286 286 286 285 285 285 286 286 287 287 288
289 289 289 288 287 285 285 284 284 283 283 284 284 284 284 284 284 284 284 284 284 284 284 283 283 283 283 283 283 283 283 283 282 282 281 281 281 281 280 280 280 280 279 279 279 279 279 279 280 280 280 280 280 280 280 280 280 280 281 281 282 283 283 283 284 284 285 286 286 286 286 286 285 286 286 286 286 286 286 285 285 286 286 286 287 287
290 289 289 288 287 285 285 284 284 284 283 284 284 284 284 284 284 284 284 284 284 284 283 283 283 283 283 282 282 282 283 283 282 281 281 281 281 281 280 280 280 279 279 279 279 279 279 279 279 279 279 279 279 279 279 279 279 280 281 281 282 282 283 283 284 285 285 286 286 285 285 285 285 285 285 286 286 286 286 285 286 286 286 286 286 287
289 289 289 288 286 285 285 284 284 284 284 284 284 284 284 284 284 284 284 284 284 284 283 283 283 283 283 282 282 282 282 282 282 282 281 281 281 280 280 280 279 279 279 279 278 279 279 279 279 279 279 279 279 279 279 279 279 280 281 281 282 282 283 283 284 285 285 285 285 285 285 285 285 285 285 286 286 286 286 286 286 286 286 286 286 286
289 288 288 287 286 285 285 284 284 284 284 284 284 284 284 284 284 284 284 284 284 284 283 283 283 283 282 282 282 282 282 282 282 282 281 281 280 280 280 279 279 279 278 278 278 278 278 278 278 278 278 278 278 278 278 279 279 280 281 281 282 282 283 284 285 285 285 285 285 285 285 285 285 285 285 285 285 286 285 286 286 286 286 286 286 286
288 288 287 286 286 286 285 284 284 284 284 284 284 284 284 284 284 284 284 284 284 283 283 283 283 282 282 282 282 282 282 282 282 281 281 280 280 280 279 279 279 278 278 278 278 278 278 278 278 278 278 278 278 278 278 279 279 280 281 281 282 283 284 284 285 285 284 284 284 284 285 285 285 285 285 285 285 285 285 285 286 286 286 286 286 286
288 287 286 286 286 286 285 284 284 284 284 284 284 284 284 284 284 284 283 283 283 284 283 283 283 282 282 282 282 282 282 282 282 281 281 280 280 280 279 279 279 278 278 278 279 279 278 278 278 278 278 278 278 278 278 279 280 280 281 282 283 283 284 284 284 284 284 284 284 284 285 285 285 285 285 285 285 285 285 285 286 286 286 286 287 287
288 287 287 286 286 285 285 284 284 284 285 284 284 284 284 284 284 283 283 283 283 283 283 283 282 282 281 281 282 282 282 282 282 281 281 280 280 279 279 279 278 278 278 278 278 278 278 278 278 278 278 278 278 278 279 280 280 281 281 282 283 283 283 283 283 283 283 283 283 284 284 285 285 284 284 284 284 285 285 286 286 286 286 286 287 287
287 287 287 286 286 285 285 285 285 285 285 284 284 284 284 284 283 283 283 283 283 283 283 283 282 282 282 282 282 282 282 282 282 281 280 280 280 279 279 279 278 278 278 278 278 278 278 278 278 278 278 278 278 279 280 280 281 281 281 282 282 282 282 283 283 283 283 283 283 284 284 285 285 284 284 284 284 284 285 286 286 286 286 287 287 287
286 286 286 286 286 285 285 285 285 285 284 284 284 284 284 284 283 283 283 283 283 283 283 282 282 282 282 282 282 282 282 282 281 281 280 280 279 279 279 279 278 278 278 278 278 278 278 279 278 279 279 279 279 279 280 280 281 281 281 281 282 282 282 282 282 283 283 283 284 284 284 284 285 285 285 284 284 284 285 285 286 287 287 287 287 287
286 286 286 286 286 285 285 285 285 285 284 284 284 284 284 283 283 283 283 282 282 283 283 282 282 281 281 281 281 281 281 281 281 280 280 280 279 279 279 279 278 278 278 278 278 278 279 279 279 280 280 280 280 280 280 280 280 280 281 281 281 282 282 282 282 282 283 283 284 284 285 285 285 285 285 284 284 285 285 285 286 287 287 287 287 287
286 286 286 286 285 285 285 285 285 284 284 284 284 284 284 283 283 283 282 282 282 282 283 282 282 281 281 281 281 281 281 281 280 280 280 280 279 279 279 279 278 278 278 278 278 278 279 279 280 280 280 280 280 280 280 280 280 280 281 281 281 281 281 281 282 282 282 283 283 284 285 285 285 285 285 285 285 285 285 285 286 286 287 287 287 287
286 286 286 286 285 285 285 285 284 284 284 284 284 284 283 283 283 283 282 282 282 282 282 282 281 281 280 280 280 280 280 280 280 280 280 280 280 279 279 279 278 278 278 278 278 278 278 278 279 279 280 280 280 280 280 280 280 280 280 281 281 281 281 281 281 282 282 283 283 284 285 285 286 286 285 285 285 285 285 286 286 286 287 287 287 287
Wind_Speed
16 18 19 19 19 19 19 20 20 22 24 26 28 29 30 30 30 31 30 30 29 29 29 29 29 29 28 28 27 27 26 26 26 26 26 27 27 28 28 28 29 29 29 28 28 27 27 26 26 25 25 24 24 24 23 22 20 19 18 19 20 21 22 22 22 22 21 20 20 21 22 22 22 22 22 23 23 23 23 22 22 22 23 23 24 25
17 18 18 17 17 18 19 20 21 22 24 26 27 28 28 29 30 30 30 29 28 28 28 29 29 29 28 28 27 26 26 25 25 26 26 27 28 29 29 29 29 29 29 28 28 27 26 25 24 23 23 22 22 22 22 22 21 21 20 21 22 23 23 22 22 22 22 22 22 22 23 24 24 25 25 25 24 24 23 22 21 22 22 23 23 24
17 17 17 17 17 18 19 21 21 22 24 25 26 26 27 28 28 28 28 28 28 28 28 28 28 28 28 28 27 26 25 25 25 25 26 28 29 29 30 29 29 29 28 28 27 26 25 24 23 22 21 21 22 23 24 25 25 25 24 25 25 24 24 24 23 23 23 23 23 24 25 26 27 28 28 28 27 26 24 23 22 21 21 22 23 23
16 17 18 18 18 18 19 21 22 23 24 24 25 25 25 26 26 26 26 27 27 28 28 28 28 28 28 27 27 26 25 24 24 25 27 28 29 29 29 29 28 28 28 27 27 26 25 24 23 22 22 22 23 24 25 26 26 26 26 26 26 25 24 25 25 25 25 24 24 24 24 26 27 29 29 29 29 28 27 25 23 22 21 21 22 23
16 16 17 18 19 19 20 21 22 23 23 23 24 24 24 24 25 25 26 26 27 27 28 28 27 27 27 26 26 25 24 24 25 26 27 28 28 28 28 27 27 27 27 27 26 25 25 24 23 23 24 24 25 26 26 26 26 26 26 26 25 25 25 25 25 25 25 25 24 24 24 25 26 28 29 30 30 29 27 26 24 23 22 22 22 22
17 17 17 18 18 19 20 21 21 22 22 22 23 23 23 23 24 24 25 26 26 27 27 27 26 26 26 25 25 24 24 24 25 26 27 27 27 27 26 26 26 26 27 26 26 25 25 24 24 25 26 27 28 27 27 26 26 25 25 25 25 25 25 25 25 25 25 25 25 25 25 25 25 26 28 29 29 28 27 26 25 24 24 23 22 22
18 18 18 18 19 19 19 20 20 20 21 22 23 23 23 23 23 23 24 25 25 26 26 26 25 25 24 24 24 24 24 25 26 27 27 26 26 25 25 25 25 25 26 26 25 25 25 25 26 27 28 29 28 28 27 26 25 25 25 25 25 26 26 26 25 25 25 25 25 26 26 25 25 26 27 27 27 26 26 26 25 25 25 24 23 22
19 19 19 18 19 19 19 19 19 20 20 21 22 22 23 23 23 23 24 24 24 24 24 24 24 23 24 24 25 25 25 26 26 26 26 25 25 24 24 24 24 24 24 24 25 25 26 27 28 29 30 29 28 27 26 26 26 25 25 26 26 26 26 26 26 26 26 26 26 26 26 25 26 26 26 26 25 25 25 25 26 26 25 25 24 23
18 19 19 18 18 19 20 20 20 20 20 20 20 21 23 24 24 24 23 23 23 22 22 22 23 23 24 24 25 25 26 25 24 23 24 24 24 24 23 22 22 23 23 23 25 26 28 29 30 30 30 28 27 27 26 26 26 26 26 26 26 26 26 26 26 26 26 26 26 26 25 25 26 26 25 25 25 25 25 26 26 26 26 25 25 25
17 17 18 19 18 18 19 20 21 21 20 20 20 20 21 22 23 23 22 21 21 21 21 21 22 24 25 25 25 25 24 23 22 21 21 22 22 21 21 20 21 22 23 25 27 28 30 30 30 30 28 27 27 26 26 26 26 27 27 27 27 26 26 26 26 26 26 26 26 26 25 25 25 26 26 26 26 26 27 27 27 27 26 26 26 26
17 18 18 19 19 19 18 19 20 20 19 20 21 21 20 19 19 20 20 21 21 22 22 22 22 23 24 25 24 23 21 22 22 21 21 21 20 20 20 20 22 24 26 28 29 30 31 30 29 28 27 26 26 26 26 27 27 27 27 26 26 25 25 25 25 25 25 26 26 26 26 26 26 27 28 28 28 29 29 29 28 28 28 27 27 27
17 17 18 18 19 18 18 18 17 17 18 18 19 19 18 17 17 18 19 21 22 23 24 24 24 23 23 24 23 22 20 20 20 20 20 20 20 21 22 24 26 28 29 30 31 31 30 29 28 26 26 25 25 26 26 27 27 26 26 25 25 25 24 24 25 25 25 26 26 27 27 27 28 29 29 30 30 30 30 30 30 30 29 29 28 28
17 17 17 18 17 16 15 15 16 16 16 17 18 18 19 19 19 19 19 21 22 23 24 25 24 23 22 21 21 20 19 18 17 18 19 21 22 23 25 27 28 30 31 31 31 30 28 27 26 25 25 25 26 26 27 27 26 25 25 25 24 24 24 25 25 25 26 26 27 27 28 28 29 29 30 30 30 30 30 30 30 30 30 29 29 29
17 17 16 15 13 13 13 14 16 17 18 19 19 20 21 22 21 21 21 21 22 23 23 23 22 22 20 18 17 16 16 16 17 19 22 23 24 25 26 26 27 28 29 28 28 27 26 25 25 25 26 25 26 26 26 25 24 24 24 24 25 25 25 26 26 26 26 26 27 27 28 28 28 28 28 28 28 28 28 28 28 28 29 29 28 28
15 14 12 10 10 11 13 16 17 19 20 20 21 22 22 22 22 21 20 21 22 23 22 21 20 19 16 15 15 16 17 18 19 22 24 25 25 25 24 24 25 26 26 25 24 24 24 24 25 25 26 26 25 25 24 23 23 24 25 26 26 27 27 27 27 27 27 27 27 27 26 26 26 26 26 25 25 25 25 25 25 26 26 26 26 27
13 11 9 9 11 13 16 18 19 19 20 21 21 21 21 21 21 20 20 19 20 19 18 16 15 16 17 18 18 19 21 22 23 24 24 24 23 22 21 22 23 23 24 23 24 24 24 24 25 25 25 25 25 24 23 24 25 26 27 27 28 28 28 28 27 27 26 26 26 25 24 24 23 24 24 24 24 24 24 25 24 24 23 23 23 24
10 8 8 10 12 16 18 18 18 19 20 20 21 20 20 20 20 20 19 18 17 16 14 13 11 12 15 22 24 23 23 24 24 23 21 21 20 20 20 21 21 23 24 24 24 24 24 24 25 25 26 26 25 25 25 26 27 27 27 27 27 27 27 26 26 25 25 24 24 23 22 22 22 23 24 24 24 24 24 24 24 24 23 23 22 23
10 10 12 14 15 17 18 18 19 19 19 19 20 20 21 21 21 20 18 17 16 14 13 14 14 13 14 19 23 24 23 22 21 19 19 19 20 21 21 21 22 23 24 24 24 24 24 25 26 27 27 27 27 27 27 27 27 27 26 26 26 25 25 24 24 23 23 22 22 22 22 23 23 24 24 24 24 24 24 24 24 24 24 24 23 23
14 15 16 16 16 17 17 18 19 19 18 19 19 20 20 20 20 19 18 17 15 14 14 16 18 19 19 20 22 23 22 21 20 18 18 19 20 21 22 22 22 23 23 23 23 24 25 25 26 28 29 28 28 28 27 26 26 25 25 25 24 24 24 23 23 23 22 22 22 23 23 23 23 24 24 24 24 24 24 24 24 24 24 24 24 24
16 16 17 18 18 17 17 17 18 19 19 20 21 20 19 20 19 18 16 15 15 16 16 18 19 19 19 21 22 22 21 21 20 19 18 19 21 22 22 22 22 22 23 23 24 24 25 26 27 28 28 28 27 26 26 25 24 24 24 24 24 24 23 23 23 23 22 22 22 22 23 23 23 23 24 24 24 24 24 24 24 24 24 24 24 24
18 18 18 18 17 16 17 18 20 21 22 23 23 21 20 19 17 16 15 16 17 18 18 17 17 18 20 21 21 22 24 23 20 17 17 18 20 21 22 22 22 22 23 23 24 24 25 26 27 27 27 26 25 25 24 24 24 24 23 23 23 23 23 23 23 22 22 22 22 22 22 22 22 23 23 23 23 23 24 24 23 23 24 24 24 24
20 20 20 20 20 20 21 23 24 25 26 26 24 21 19 17 15 15 16 18 19 19 20 18 18 20 21 21 22 24 25 23 19 16 15 15 18 20 21 21 21 22 22 23 24 25 25 26 26 26 26 25 24 24 23 23 23 23 23 23 23 23 23 23 22 22 22 22 22 22 22 22 23 23 23 23 23 23 23 23 23 23 23 23 24 24
23 24 24 24 23 23 24 25 25 26 26 25 23 20 18 16 16 17 18 18 19 18 18 19 20 20 21 21 23 24 23 20 17 15 13 12 16 20 21 21 20 20 21 22 24 25 26 26 26 25 25 24 23 22 22 22 23 23 23 24 24 23 23 23 22 22 22 22 23 23 23 24 24 24 24 24 23 23 23 23 23 22 23 23 24 24
24 25 24 23 23 23 23 24 24 25 24 22 19 17 17 18 19 19 20 19 18 18 18 20 21 21 21 21 22 21 19 16 15 14 13 13 16 20 21 21 20 20 21 23 24 25 25 26 25 25 24 23 22 22 21 22 22 23 24 24 24 23 23 23 23 23 23 23 23 23 24 24 24 24 24 23 23 23 22 22 22 22 22 23 23 23
23 23 23 22 21 21 21 22 22 21 20 18 17 17 18 19 20 20 19 19 18 18 19 19 20 20 20 20 20 18 16 15 14 14 14 14 16 20 21 20 20 20 21 23 24 24 24 25 24 24 23 23 22 21 21 21 22 23 24 24 24 24 23 23 23 23 23 23 23 23 24 24 24 24 24 23 23 22 22 21 21 21 22 23 23 23
22 22 22 21 20 20 19 19 19 19 18 17 17 18 18 19 19 19 19 18 17 18 18 18 17 18 19 18 17 15 14 14 15 15 14 13 15 18 20 20 19 19 21 22 23 23 23 23 23 23 23 23 22 22 21 22 23 23 24 24 24 24 23 23 23 23 23 23 24 24 24 24 23 23 23 22 22 22 21 21 21 21 22 22 22 22
22 22 22 21 21 20 20 20 20 19 18 17 17 17 17 17 18 18 17 17 17 17 16 14 14 15 17 16 14 13 14 16 16 15 15 14 14 16 19 20 20 20 20 22 22 22 22 22 22 22 22 22 22 22 23 23 23 23 24 24 23 23 23 23 23 23 23 24 24 24 24 23 22 22 22 22 21 21 20 20 20 21 22 22 21 21
23 23 24 23 23 22 21 19 18 17 17 16 15 15 15 15 15 15 15 16 17 16 14 13 12 12 11 12 13 14 16 16 15 15 15 15 14 15 18 20 20 19 19 20 22 22 21 21 21 21 21 21 22 23 24 24 24 24 24 24 23 23 23 23 23 23 24 24 24 24 24 23 23 22 22 21 21 20 20 20 20 21 22 22 22 21
25 25 25 24 23 21 20 18 17 16 16 16 15 13 13 13 13 13 15 16 16 15 13 13 13 11 10 12 14 16 16 15 14 15 16 16 15 16 18 19 18 18 18 19 21 22 21 20 19 19 20 21 22 24 25 25 25 25 25 25 24 23 23 23 23 23 23 24 24 24 24 24 23 23 22 21 20 20 19 19 19 20 22 24 24 23
26 26 25 24 22 20 18 16 15 15 16 15 14 12 11 11 12 12 14 15 15 13 12 12 12 12 12 13 13 13 12 14 14 15 17 16 15 16 18 18 17 17 16 15 14 14 17 21 21 19 20 21 23 24 25 25 24 24 25 25 25 25 25 24 24 24 23 23 23 24 24 24 24 23 22 21 20 20 19 19 19 20 22 24 24 22
27 26 25 22 20 18 16 14 14 14 14 14 12 11 10 10 11 11 12 13 13 13 11 11 11 12 12 11 8 6 7 14 16 17 17 15 14 16 17 17 16 16 15 12 7 5 10 17 22 23 23 23 23 23 23 23 23 23 24 25 26 27 26 25 24 24 23 23 23 23 24 24 24 23 22 21 21 20 20 19 19 20 22 22 22 21
27 25 23 20 17 15 14 13 13 13 13 12 11 10 9 9 10 11 12 13 13 13 12 12 12 13 13 11 8 6 9 15 18 18 17 15 15 16 16 15 14 14 14 13 10 7 6 9 18 25 26 25 23 22 22 22 21 22 23 24 25 26 26 25 24 24 23 23 23 24 24 24 24 23 22 22 21 20 20 19 19 20 20 21 21 21
26 23 20 17 15 14 12 11 11 12 12 11 10 9 8 9 10 11 12 13 13 13 13 13 14 14 14 13 12 12 14 16 18 18 18 17 15 15 15 14 13 13 13 14 14 13 11 12 18 23 25 25 24 22 22 21 21 21 22 23 24 25 25 25 25 25 24 24 25 26 26 25 25 24 23 22 21 20 20 20 20 20 20 20 20 20
24 21 19 16 14 11 10 10 10 11 11 10 9 8 8 8 9 11 12 13 13 13 13 13 14 14 14 13 13 14 16 17 18 19 19 18 16 14 14 13 13 13 13 14 16 17 16 18 19 20 22 24 24 23 21 20 20 21 22 22 22 22 23 24 24 24 25 25 26 26 27 27 26 25 24 23 22 21 21 20 20 20 19 18 18 18
23 20 17 14 11 9 9 9 10 10 10 9 8 7 7 8 9 10 12 12 13 14 14 14 14 14 14 14 14 14 16 18 19 19 19 19 17 15 14 12 12 13 13 15 16 16 16 18 19 19 19 21 23 23 21 20 21 22 22 22 21 20 22 23 23 23 24 25 25 26 26 26 26 26 25 24 23 22 21 21 20 19 18 17 16 16
19 17 14 11 9 8 9 9 9 9 9 8 7 7 7 8 9 10 11 12 13 13 14 14 14 14 14 14 15 16 18 19 20 18 17 16 16 15 13 11 12 13 14 15 16 16 16 18 19 20 19 18 19 20 22 22 22 22 22 22 21 22 22 23 23 23 24 24 23 24 25 26 26 26 26 26 25 24 23 22 20 18 17 16 15 14
14 12 11 10 9 9 9 9 8 8 7 7 6 7 7 8 10 11 11 12 13 13 14 14 14 14 14 15 15 17 18 18 17 15 13 12 11 11 11 11 13 14 14 14 15 16 16 17 18 19 18 16 16 17 21 23 24 24 23 23 22 22 23 23 23 23 23 22 22 23 24 25 26 26 27 27 27 27 26 24 22 20 17 16 15 14
12 12 12 11 11 10 10 8 7 6 6 6 7 7 8 9 10 11 11 12 12 13 13 14 14 14 14 15 15 15 15 14 13 11 9 9 9 10 11 12 14 16 15 14 14 15 16 15 13 13 14 16 17 18 20 22 23 24 24 24 23 22 22 22 23 23 22 22 22 23 24 25 26 26 27 27 28 28 28 27 24 22 19 18 17 15
14 14 14 13 12 11 9 7 5 5 6 6 7 8 9 10 11 11 12 12 12 12 13 13 14 14 14 15 14 13 12 10 9 8 8 8 10 11 13 14 16 17 17 16 15 14 14 14 13 12 13 15 17 19 20 21 21 22 24 25 24 23 21 22 22 22 22 21 22 23 24 25 25 25 26 26 27 28 28 27 26 23 21 20 19 18
17 16 15 14 12 9 7 5 5 5 6 7 8 9 10 11 12 12 12 12 12 12 12 13 14 14 15 14 13 11 9 8 7 7 8 10 11 13 15 16 17 18 19 17 16 14 13 13 14 15 15 15 17 18 20 20 20 21 22 21 21 22 23 23 23 22 21 21 22 23 24 24 24 24 25 26 27 27 27 26 25 23 21 19 19 19
19 19 17 15 11 8 5 4 5 6 6 7 8 10 11 11 12 12 12 12 12 12 13 13 14 15 15 14 12 10 8 7 7 8 9 11 13 14 16 17 18 19 19 18 17 15 14 13 14 15 16 16 17 18 19 20 19 19 18 18 19 22 23 23 22 20 20 21 22 23 23 23 23 24 26 27 27 27 26 25 24 22 19 18 17 16
22 22 19 14 9 6 4 4 5 6 7 8 9 10 11 11 12 12 12 12 12 13 13 14 14 15 15 14 12 10 9 9 9 10 10 12 14 16 18 19 19 18 18 18 18 17 16 15 15 16 16 17 17 17 18 19 19 18 17 17 19 21 22 22 20 20 21 22 23 23 23 23 24 26 27 28 28 27 26 25 23 21 18 17 16 15
24 22 18 12 7 5 4 5 5 6 7 9 10 11 11 11 11 11 11 12 13 13 13 14 14 15 15 14 14 12 11 10 10 10 11 13 15 17 19 20 19 18 17 17 18 19 18 17 17 17 17 17 17 16 17 18 19 18 18 18 18 18 17 19 21 22 22 23 23 24 24 25 27 28 29 29 28 27 26 25 23 20 18 17 15 14
22 19 14 10 7 6 5 5 6 7 8 10 11 11 11 10 10 10 11 12 13 13 13 13 14 14 14 13 13 13 13 12 12 11 12 13 16 18 20 20 19 17 16 16 18 19 20 19 19 18 18 17 16 16 16 16 17 18 18 19 18 17 16 17 20 22 23 24 24 25 25 26 28 29 29 29 28 27 26 25 23 21 19 16 15 14
20 16 13 10 8 6 6 6 6 8 9 11 11 11 10 9 9 10 10 11 12 12 12 13 13 13 12 12 13 14 14 14 13 12 13 14 17 19 20 20 18 17 16 16 17 18 19 19 20 20 18 17 15 15 14 15 16 17 18 18 18 18 18 19 20 21 22 24 25 26 27 28 28 29 28 28 28 28 27 25 24 22 20 18 16 15
19 17 14 11 8 7 6 7 8 9 11 11 11 10 10 9 9 9 10 11 11 12 12 12 12 11 11 12 13 14 14 14 14 13 14 16 18 19 20 19 18 17 17 17 17 17 18 19 19 19 18 16 15 14 13 13 14 16 17 18 19 18 18 19 20 22 23 24 25 26 28 29 28 27 25 25 26 27 27 26 24 23 22 20 19 19
20 17 14 11 8 7 7 8 9 11 12 12 11 10 9 8 8 8 9 10 10 11 12 12 11 11 11 12 13 13 14 14 14 15 16 17 19 19 20 19 18 17 16 17 17 17 17 16 14 14 14 13 13 12 12 13 13 15 16 18 18 18 19 20 22 24 25 25 26 27 28 28 27 25 24 24 25 25 26 26 25 24 23 22 22 22
19 16 12 9 8 8 8 9 11 12 13 12 11 9 8 7 8 8 9 9 10 11 11 11 11 11 12 12 12 13 13 14 15 16 17 18 19 19 20 20 19 18 17 17 17 17 16 12 9 7 7 7 8 10 11 13 14 15 16 17 17 18 18 21 23 25 25 26 27 27 28 27 25 23 23 22 22 22 25 27 27 25 24 24 24 24
18 14 11 8 8 8 9 10 12 13 13 12 10 8 7 7 7 7 8 9 10 11 11 11 11 11 11 12 12 13 13 14 15 16 16 17 17 19 20 20 20 19 19 18 18 18 16 10 5 3 4 5 7 9 12 15 16 16 16 16 16 17 18 20 23 24 25 26 27 28 27 26 25 24 22 19 18 20 23 26 27 27 26 26 26 26
16 13 10 9 9 9 10 11 12 13 12 11 9 8 7 7 7 7 8 9 10 11 11 10 10 10 11 12 13 13 13 14 15 15 15 15 16 17 19 20 20 20 20 19 18 19 19 14 8 4 4 5 7 10 13 16 17 17 16 16 16 17 18 19 21 24 26 27 28 28 27 26 24 23 21 18 17 18 21 23 25 27 28 28 28 27
14 11 10 9 10 10 11 12 12 13 12 10 9 8 7 7 7 7 8 9 10 10 10 10 9 9 11 12 13 13 13 14 14 14 13 13 14 15 17 18 19 19 18 18 17 17 17 15 11 7 6 5 7 10 12 15 16 16 16 16 17 18 18 19 21 24 26 27 28 27 26 25 23 22 20 18 16 16 18 20 23 27 29 30 30 29
Wind_Direction
298 302 306 309 310 310 310 311 312 313 313 313 315 316 317 318 319 320 321 323 324 325 326 326 326 327 327 329 330 331 330 328 326 325 325 324 323 322 321 320 319 319 319 319 319 319 318 317 316 315 315 315 316 317 317 316 316 317 318 318 318 319 321 322 322 323 322 321 319 316 314 313 313 313 314 314 313 312 312 311 311 310 309 308 305 302
300 303 306 309 310 310 309 310 311 312 313 314 315 316 317 317 318 318 320 321 323 323 323 323 323 324 324 326 327 327 326 324 323 322 322 322 321 320 319 318 317 318 318 318 318 318 317 316 315 315 316 318 319 319 319 318 319 318 317 316 316 317 317 317 317 318 319 319 317 314 313 314 315 316 317 317 316 315 313 312 310 308 308 308 307 307
303 305 307 309 310 310 309 310 311 312 312 313 313 314 315 315 316 317 318 319 320 321 321 321 320 321 322 323 324 323 322 320 319 319 320 320 319 318 317 317 316 316 317 317 317 317 317 316 316 317 320 322 321 319 318 317 317 316 314 314 315 315 314 313 312 311 312 312 311 309 308 311 313 315 315 316 316 316 314 312 309 307 306 306 307 308
302 304 307 309 310 309 308 309 311 311 311 312 312 313 314 314 314 315 315 316 316 317 318 319 319 319 319 319 320 320 318 317 316 316 317 317 317 316 316 315 315 316 316 316 316 316 315 315 315 317 319 320 319 316 314 313 312 311 311 311 313 313 312 310 308 307 307 306 305 304 305 307 310 312 313 314 315 315 315 312 310 308 306 305 305 305
300 303 307 310 310 309 308 309 310 311 311 311 312 312 313 313 313 313 313 314 314 314 315 316 317 316 316 315 316 316 315 313 313 313 314 314 315 315 315 314 315 315 315 315 314 314 313 313 313 315 316 316 315 314 312 311 310 309 309 310 311 311 309 308 306 305 304 303 303 302 302 304 305 307 308 310 312 314 314 312 311 309 308 306 304 304
298 302 305 308 308 307 308 308 309 310 311 311 311 312 312 312 312 312 312 312 312 313 313 313 313 313 313 312 312 312 310 309 310 311 312 313 313 313 314 314 315 315 314 314 313 312 312 312 312 312 313 314 314 313 312 311 310 310 310 310 310 311 310 308 307 305 304 303 303 303 302 302 303 304 305 307 310 312 312 311 310 309 308 307 305 303
297 301 304 305 305 304 305 306 308 309 310 310 311 312 312 312 311 310 310 310 310 311 311 311 311 311 311 310 310 308 306 306 307 309 311 312 312 313 313 313 314 314 314 313 313 312 312 311 311 311 312 312 312 312 311 311 310 310 310 310 310 310 310 309 307 306 304 303 303 302 302 301 302 303 305 308 310 312 312 311 309 308 307 307 307 305
296 300 303 304 305 305 304 304 305 307 308 308 309 311 311 311 310 309 309 309 310 310 310 310 309 309 309 309 308 306 304 303 304 307 309 311 312 312 313 313 314 314 314 313 313 312 312 311 310 310 311 311 311 310 310 310 310 309 309 309 309 309 308 307 306 305 303 303 302 301 301 302 302 304 307 310 312 312 312 311 310 309 309 309 308 307
291 296 300 301 303 304 304 303 304 306 307 306 306 307 309 309 309 309 309 309 310 310 310 309 308 308 308 307 306 305 303 301 302 304 306 308 310 311 312 313 313 314 314 313 312 311 311 310 310 310 310 310 310 310 309 310 310 310 310 310 309 309 308 307 305 304 303 302 302 302 303 304 305 307 309 311 311 311 311 310 310 309 309 307 306 305
287 292 297 299 299 299 299 300 302 305 306 305 304 303 304 305 306 308 308 308 310 311 310 309 308 307 307 307 306 304 302 300 299 301 304 305 308 309 311 311 312 312 312 311 311 311 312 312 311 311 310 309 309 309 309 309 310 310 310 310 310 309 308 308 307 306 305 305 306 307 308 308 309 310 310 310 309 309 308 307 307 306 305 304 303 303
288 291 293 295 296 296 294 295 300 304 306 306 305 304 302 302 303 305 306 307 309 311 310 308 307 306 305 306 306 305 301 300 300 303 306 307 309 310 310 310 310 311 311 311 312 313 314 314 313 312 310 309 308 308 309 309 310 310 310 311 310 310 309 310 310 309 309 310 310 311 311 311 310 309 308 307 307 306 304 303 302 301 300 300 300 300
285 289 291 293 294 295 295 296 300 305 309 310 310 308 306 304 303 302 302 304 306 308 307 307 306 304 303 304 305 304 300 300 302 306 309 310 310 310 311 312 313 313 314 315 315 315 315 314 312 311 309 307 307 308 309 309 310 311 311 311 310 310 310 311 311 311 311 311 312 312 312 310 308 307 306 305 304 303 301 299 298 297 296 295 295 295
281 285 286 288 290 292 296 301 307 310 312 311 310 307 305 305 304 301 299 299 300 301 301 302 303 303 303 303 302 302 301 302 305 307 308 308 309 310 312 314 316 317 317 317 316 315 313 311 309 307 306 306 307 308 309 311 311 311 311 310 310 311 311 311 312 312 312 311 311 311 310 309 307 306 305 304 302 301 299 298 296 295 293 292 291 291
281 283 282 283 286 291 300 307 311 311 309 307 304 301 300 301 301 299 296 294 295 297 298 297 299 302 305 307 308 307 307 308 308 308 306 306 308 311 314 316 317 317 317 314 311 310 309 308 306 306 306 307 308 310 311 313 312 311 310 310 310 311 311 311 311 311 311 311 310 309 308 307 306 306 305 304 303 302 301 300 298 296 293 291 290 289
276 279 280 282 289 299 306 310 309 306 303 301 299 298 298 299 298 297 294 292 294 296 297 296 298 302 308 314 317 317 315 314 311 308 306 305 308 313 318 318 316 315 313 309 307 305 306 306 306 306 308 309 311 312 313 313 312 311 310 310 310 310 310 310 310 310 309 308 308 307 307 307 307 307 306 306 307 307 307 306 304 300 296 293 291 289
273 274 278 287 297 303 305 305 303 300 299 298 297 296 295 296 295 294 292 290 292 295 298 300 305 309 312 314 316 317 316 314 309 306 304 306 311 317 321 318 314 311 310 308 307 306 307 307 308 308 310 312 314 315 314 312 311 311 310 309 309 309 309 309 309 309 308 307 306 307 308 308 309 309 309 310 311 312 314 313 312 309 305 301 297 293
268 271 280 292 299 301 302 300 297 295 295 295 294 293 292 292 291 291 291 291 294 298 301 309 315 317 315 314 314 315 314 311 306 304 305 309 314 320 323 320 315 312 312 310 309 308 308 309 310 311 312 313 314 314 313 311 311 310 309 309 309 309 309 310 309 308 308 307 307 308 309 309 309 309 309 309 310 311 313 314 314 314 311 308 303 299
273 281 290 295 296 297 298 297 295 293 293 292 292 292 291 292 292 292 293 294 297 301 307 315 316 314 313 312 313 314 313 309 306 307 310 312 315 320 324 322 317 314 312 310 309 309 310 310 311 311 312 312 312 311 311 310 310 310 310 310 311 311 311 311 311 310 310 310 311 311 311 310 309 308 307 307 307 308 309 310 311 311 311 310 307 304
283 286 290 292 292 292 292 292 291 291 290 290 292 293 291 292 293 295 296 297 300 304 311 313 311 308 307 306 308 311 312 311 311 313 313 312 315 319 323 323 319 315 312 310 309 310 311 311 310 310 309 310 310 310 310 311 311 311 311 312 313 314 314 314 313 313 313 312 312 312 312 311 310 308 307 307 307 307 308 308 307 307 308 309 309 308
285 285 286 287 289 290 288 287 288 288 288 290 291 291 290 293 296 298 299 302 306 309 309 307 305 304 305 306 309 312 315 316 316 314 311 310 313 317 321 322 318 315 311 310 310 311 311 311 310 310 309 310 310 310 311 311 312 313 313 315 315 316 316 315 315 315 315 314 313 312 312 311 310 309 308 307 307 307 307 307 306 305 306 306 306 306
282 281 281 283 284 286 286 287 288 289 291 292 291 289 290 294 297 301 305 310 311 310 308 304 303 305 308 310 311 313 315 315 312 308 308 309 312 316 319 320 318 315 312 311 312 313 312 311 311 311 311 311 311 311 312 313 313 314 315 316 317 317 317 318 318 317 316 315 314 313 313 312 311 310 309 308 308 308 307 307 306 304 304 303 303 303
279 279 280 281 281 282 284 287 290 294 295 293 289 288 290 295 301 306 311 311 310 308 307 304 305 307 310 310 309 311 313 312 307 304 308 310 312 315 318 320 317 314 312 312 313 314 314 313 311 311 311 311 311 312 313 314 315 315 316 317 318 318 319 319 320 319 318 317 317 316 315 314 314 312 312 310 309 308 308 306 304 303 302 302 302 302
276 278 280 282 284 285 287 291 295 298 297 293 289 289 295 302 307 308 308 308 307 305 305 305 307 308 309 308 308 310 311 310 310 311 312 311 312 315 318 320 318 314 312 313 314 315 314 313 311 311 310 311 311 312 313 314 315 316 317 318 319 320 320 321 321 321 320 320 319 318 317 316 315 314 312 311 310 308 306 305 304 302 301 301 301 301
275 277 279 282 285 288 291 293 295 297 296 295 298 305 313 315 313 311 309 309 308 308 308 310 310 310 310 310 310 309 309 310 314 318 316 311 310 312 316 318 317 313 312 313 315 315 314 313 312 311 311 312 312 312 314 315 316 317 318 319 320 321 321 321 322 322 321 320 319 318 317 316 315 314 312 311 310 308 306 304 303 302 302 301 301 302
275 276 278 281 285 288 290 292 294 295 297 302 310 315 316 314 311 310 311 313 315 315 315 314 312 311 310 311 310 309 309 313 319 320 315 309 308 310 313 316 315 313 312 313 315 315 314 313 312 312 312 313 314 315 315 316 317 318 319 319 320 320 320 321 322 321 321 320 319 318 317 316 315 314 313 313 312 310 309 307 305 304 304 303 303 303
274 275 276 279 282 284 285 289 292 294 297 303 309 312 310 309 308 309 313 316 319 321 320 316 312 309 308 308 306 305 310 317 322 320 315 310 307 309 311 314 315 313 312 313 315 315 314 312 312 313 313 314 316 317 318 318 319 319 319 319 319 319 321 321 322 322 321 320 319 318 317 317 316 315 315 315 314 313 311 309 308 307 306 305 305 304
271 271 272 274 278 281 284 286 288 290 293 299 303 306 307 307 310 314 319 320 322 322 320 314 309 306 305 303 302 305 313 317 318 318 318 316 310 308 310 313 314 313 312 312 313 314 313 312 311 312 313 316 318 320 321 320 319 319 320 320 320 320 322 323 323 323 322 321 320 319 319 319 318 318 317 317 316 315 313 312 310 310 309 308 306 304
269 270 270 271 274 278 282 284 285 287 291 296 300 303 304 306 311 316 317 320 323 322 317 310 306 303 303 306 309 313 316 315 316 318 322 321 314 307 308 311 312 312 312 312 313 314 313 311 311 312 315 318 320 322 322 321 321 322 323 323 323 323 323 324 324 324 323 322 320 320 320 321 321 320 320 319 318 317 315 313 312 312 311 311 310 307
272 270 269 270 272 274 276 277 280 285 290 293 296 298 300 304 309 314 318 324 325 322 315 310 308 308 312 317 319 318 316 315 317 322 324 323 314 306 307 309 311 311 312 314 315 316 315 314 314 316 318 320 321 321 322 323 325 326 328 327 326 325 325 326 326 325 324 323 322 321 321 323 323 323 323 322 320 319 317 315 314 313 313 314 315 315
275 273 271 271 271 270 271 272 277 285 290 291 291 293 297 303 310 318 324 328 326 321 315 312 314 318 322 323 322 319 315 316 319 324 325 321 311 305 308 308 309 310 313 316 317 318 318 318 318 319 320 321 321 321 322 324 325 327 328 328 327 327 328 328 328 327 326 326 325 325 324 325 325 326 326 324 322 321 319 318 317 315 315 316 318 322
275 272 269 269 268 266 266 270 279 286 289 287 287 290 297 305 313 320 325 327 325 320 314 313 314 317 320 321 319 314 312 314 317 322 323 316 307 303 306 306 306 309 314 317 319 318 318 319 319 320 321 321 321 321 321 323 325 326 327 328 327 327 328 329 329 329 329 328 329 329 328 328 328 328 327 325 323 322 320 319 318 316 316 317 319 321
272 268 266 264 261 259 260 270 281 287 285 283 284 290 298 307 314 320 324 325 324 321 316 312 310 310 313 311 307 301 303 309 314 318 319 311 303 301 304 303 304 308 315 320 319 314 312 315 317 318 320 320 320 320 320 322 324 326 327 327 327 327 328 329 330 330 330 330 331 332 332 333 333 332 330 328 326 324 322 321 320 318 317 317 317 318
267 264 261 255 250 250 258 273 282 284 279 278 281 289 298 308 316 320 321 321 320 319 317 314 310 308 308 306 303 301 302 306 311 315 315 309 303 302 305 306 309 313 320 322 320 314 308 308 311 315 316 317 317 317 318 320 322 325 327 327 327 326 327 329 330 330 330 330 331 333 335 337 337 337 336 334 332 328 325 323 322 320 318 317 316 314
264 259 251 243 239 245 261 276 280 276 272 274 280 289 300 311 317 320 319 318 317 316 316 315 312 308 306 306 306 304 304 306 310 314 314 310 306 305 310 314 319 323 326 324 321 317 311 310 311 313 314 314 315 315 316 318 321 323 325 326 326 325 326 327 329 329 330 330 331 333 335 338 339 340 340 339 337 333 329 326 323 322 320 317 316 315
257 248 237 230 233 248 266 274 271 267 266 272 281 293 306 315 319 319 318 316 315 314 314 314 314 312 309 305 304 303 304 306 312 317 317 314 312 313 317 322 326 329 327 323 321 319 315 312 312 312 312 312 313 313 314 317 319 321 323 325 325 324 324 326 327 328 328 328 329 331 334 336 338 339 340 340 338 334 331 329 327 326 324 322 320 319
241 231 224 226 238 256 266 265 261 260 265 275 288 303 316 321 321 319 317 315 314 313 312 313 314 316 315 310 305 302 303 309 316 321 323 323 323 322 322 322 324 326 325 321 319 317 315 313 312 311 311 310 311 312 314 317 319 322 323 325 325 324 325 327 328 328 327 326 326 328 331 334 336 338 339 339 338 337 337 337 336 335 332 329 327 325
229 224 227 237 248 255 257 255 255 262 273 286 303 318 325 325 322 319 317 315 313 311 310 311 314 316 318 318 315 312 312 317 322 327 331 335 334 330 322 318 320 323 323 320 317 315 314 312 311 311 310 308 308 310 313 317 319 321 322 323 323 323 325 328 330 329 326 324 323 326 330 333 335 336 337 338 339 340 341 342 343 341 339 337 334 332
234 237 242 248 251 251 249 249 258 273 288 304 319 328 329 325 321 318 316 314 312 311 311 312 315 318 321 322 323 324 324 326 329 335 340 341 338 333 327 322 322 323 322 320 316 313 312 310 309 309 309 307 305 306 310 314 317 318 319 320 321 322 324 327 329 329 326 324 324 326 330 333 335 335 336 337 338 340 342 343 343 342 343 342 341 339
239 242 246 249 249 247 246 253 271 291 304 317 325 327 325 321 319 317 315 314 312 312 313 314 318 321 324 327 330 332 334 335 337 339 339 336 333 331 329 327 325 323 321 320 317 313 309 305 303 303 304 304 305 306 308 311 313 315 317 320 322 324 325 327 328 327 326 325 326 329 331 334 335 334 334 335 337 339 340 341 341 342 343 344 343 340
244 245 247 248 247 246 250 268 290 303 311 318 320 320 319 318 317 316 315 314 314 314 316 318 321 323 326 329 334 339 341 340 337 332 329 328 327 328 327 326 324 322 321 320 318 314 307 302 298 297 298 299 302 304 307 308 310 313 317 319 321 323 324 325 325 326 326 327 329 331 332 333 333 332 332 333 334 336 337 339 340 340 340 339 337 335
252 249 247 245 244 245 257 278 294 300 306 310 311 312 313 315 315 316 316 316 317 318 320 322 324 325 327 331 336 341 344 338 331 326 325 325 327 328 328 327 325 322 321 320 319 314 308 301 297 296 296 297 299 301 302 304 307 310 313 314 314 315 318 321 323 325 327 329 331 332 333 333 332 332 332 332 333 334 336 338 338 337 335 333 331 330
257 250 246 242 241 244 257 273 282 290 296 300 302 305 309 312 314 316 317 318 319 320 323 325 326 328 329 333 337 341 341 336 330 327 326 326 328 330 331 330 328 325 323 321 319 315 309 302 296 293 293 295 298 299 301 303 305 308 309 308 309 312 315 320 324 326 328 329 332 334 334 333 332 332 332 332 332 333 335 337 337 335 331 329 328 327
262 254 248 244 244 250 257 263 270 278 285 290 295 299 304 309 313 315 316 317 317 320 323 326 327 328 329 332 335 337 337 333 329 327 327 329 331 332 333 333 332 331 328 324 320 316 312 307 300 295 294 295 296 296 298 301 305 308 310 310 311 312 315 318 322 325 328 330 332 334 335 334 333 332 333 333 333 334 335 336 337 337 335 334 331 326
265 257 249 246 247 250 252 255 260 270 278 284 289 294 300 306 311 314 315 315 316 318 321 324 326 327 328 328 330 331 331 330 328 327 329 332 334 335 336 336 336 335 332 327 320 315 313 309 305 302 301 299 296 294 294 297 302 306 311 314 313 310 308 312 318 323 327 329 332 334 336 336 334 333 333 333 334 335 335 336 338 340 341 339 335 329
265 254 245 243 244 245 244 248 257 266 274 280 284 290 297 305 311 314 315 314 315 317 319 322 324 326 326 325 327 328 329 328 327 328 331 334 335 336 337 338 338 337 333 328 322 316 311 306 305 305 306 303 298 293 291 295 301 307 313 318 318 315 313 315 319 323 325 328 330 333 336 337 336 333 332 332 332 333 335 336 337 339 341 342 340 335
255 244 237 235 233 233 237 246 256 265 272 276 281 287 295 305 312 316 316 315 315 316 317 319 322 323 323 324 327 329 328 328 329 331 334 335 336 336 338 340 339 337 333 329 325 320 315 308 305 305 306 305 301 297 295 299 303 308 314 319 320 320 319 320 322 324 326 327 328 332 336 338 336 332 329 329 329 331 333 336 337 338 340 342 341 339
243 235 229 225 223 226 235 246 257 264 270 273 278 284 294 305 313 318 319 318 317 316 315 315 318 321 324 326 328 328 326 326 329 333 335 336 336 338 340 341 340 337 334 332 330 329 325 321 315 309 303 299 296 299 309 314 314 313 314 318 320 320 319 320 322 326 329 328 329 332 336 336 333 330 328 328 327 328 331 335 338 340 341 342 341 339
240 232 226 222 221 227 238 248 257 264 269 272 275 281 291 303 314 320 321 321 318 315 312 313 316 322 326 329 330 329 327 326 328 331 333 335 336 338 341 342 341 338 337 338 339 341 341 340 334 323 312 301 294 299 314 322 323 320 318 319 319 319 318 319 322 327 330 330 332 334 334 332 328 326 326 326 325 325 327 332 337 342 344 343 341 339
241 232 229 227 229 236 244 252 260 266 269 271 274 279 289 301 312 319 320 318 315 312 309 311 317 324 328 328 330 331 330 329 328 328 330 333 336 339 342 343 343 341 341 342 345 350 357 4 12 15 6 346 327 319 323 326 326 325 323 322 321 320 319 319 322 326 329 330 332 334 334 332 329 327 326 323 320 320 322 328 334 339 342 343 341 339
238 232 233 234 238 244 250 257 263 267 269 270 272 279 289 300 308 314 316 314 312 309 307 310 317 326 330 330 330 331 330 327 325 325 327 331 336 340 343 346 346 345 344 345 347 352 358 7 21 45 47 14 348 337 333 331 330 328 327 325 324 323 321 320 322 325 328 328 330 331 331 330 331 330 328 323 319 318 321 325 330 335 339 341 342 340
233 232 234 238 243 248 254 260 265 267 267 267 270 278 288 298 306 312 315 315 313 310 307 309 316 327 334 333 332 330 327 325 323 322 324 330 336 342 346 350 351 350 348 347 348 351 354 357 360 1 1 7 352 340 337 335 332 329 327 325 326 326 324 322 323 325 327 327 328 327 327 327 328 329 329 325 321 320 322 324 327 331 336 339 340 339